sim
Sign-in with your pilot id or email,
or register
Callsign
Passwort

Schedule Details

Flight Number: RYR6953
Departure: Glasgow Prestwick Airport (EGPK) at 06:10
Arrival: Fuerteventura Airport (GCFV) at 10:35
Route: Ryanair Passenger Schedule. Enter filed route here before submitting Pirep.

Weather Information
Getting current METAR information for EGPK 211750Z 17018KT 9999 -RA SCT020 BKN030 15/13 Q1015
Getting current METAR information for GCFV 211730Z 02017KT 350V050 CAVOK 27/18 Q1013

Schedule Frequency

Route Map